Location: Hamilton
(37.7830°S, 175.2830°E)
Time: 03:13:35
(UTC+13:00)

CZ-4C R/B - Pass Details

Date: 24 January 2019
Orbit: 671 x 1331 km, 63.4° (Epoch: 16 February)

Event Time Altitude Azimuth Distance (km) Brightness Sun altitude
Rises 22:02:14 0° 203° (SSW) 3,634 6.7 -14.8°
Reaches altitude 10° 22:06:48 10° 173° (S) 2,514 5.1 -15.5°
Maximum altitude 22:09:02 12° 150° (SSE) 2,281 4.6 -15.9°
Drops below altitude 10° 22:11:09 10° 127° (SE) 2,360 4.4 -16.2°
Enters shadow 22:13:13 - 108° (ESE) 2,701 4.5 -16.5°
